TimeCDT,TemperatureF,Dew PointF,Humidity,Sea Level PressureIn,VisibilityMPH,Wind Direction,Wind SpeedMPH,Gust SpeedMPH,PrecipitationIn,Events,Conditions,WindDirDegrees,DateUTC
12:52 AM,46.0,35.1,66,30.10,10.0,NW,5.8,-,N/A,,Clear,310,2012-10-05 05:52:00
1:52 AM,46.0,34.0,63,30.14,10.0,WNW,5.8,-,N/A,,Clear,290,2012-10-05 06:52:00
3:52 AM,44.1,33.1,65,30.15,10.0,WNW,6.9,-,N/A,,Clear,300,2012-10-05 08:52:00
4:52 AM,44.1,33.1,65,30.15,10.0,WNW,8.1,-,N/A,,Clear,300,2012-10-05 09:52:00
5:52 AM,39.9,33.1,77,30.17,10.0,WSW,4.6,-,N/A,,Clear,240,2012-10-05 10:52:00
6:52 AM,39.0,33.1,79,30.16,10.0,West,6.9,-,N/A,,Clear,280,2012-10-05 11:52:00
7:52 AM,39.9,32.0,73,30.16,10.0,WNW,9.2,-,N/A,,Clear,300,2012-10-05 12:52:00
8:52 AM,44.1,32.0,63,30.15,10.0,WNW,11.5,18.4,N/A,,Overcast,300,2012-10-05 13:52:00
9:52 AM,44.1,32.0,63,30.16,10.0,West,9.2,-,N/A,,Scattered Clouds,270,2012-10-05 14:52:00
10:52 AM,46.0,33.1,61,30.16,10.0,West,9.2,-,N/A,,Mostly Cloudy,270,2012-10-05 15:52:00
11:52 AM,48.0,32.0,54,30.14,10.0,WNW,12.7,-,N/A,,Partly Cloudy,290,2012-10-05 16:52:00
12:52 PM,46.9,33.1,59,30.13,8.0,West,9.2,-,0.00,Rain,Light Rain,260,2012-10-05 17:52:00
1:52 PM,46.9,33.1,59,30.09,10.0,West,8.1,-,0.00,,Overcast,260,2012-10-05 18:52:00
2:52 PM,48.9,32.0,52,30.10,10.0,West,11.5,-,N/A,,Overcast,260,2012-10-05 19:52:00
3:52 PM,48.9,33.1,54,30.08,10.0,West,11.5,-,N/A,,Overcast,260,2012-10-05 20:52:00
4:52 PM,48.9,27.0,43,30.06,10.0,West,10.4,-,N/A,,Mostly Cloudy,260,2012-10-05 21:52:00
5:52 PM,48.0,24.1,39,30.09,10.0,West,11.5,-,N/A,,Overcast,270,2012-10-05 22:52:00
6:52 PM,46.9,23.0,39,30.09,10.0,West,13.8,18.4,N/A,,Overcast,280,2012-10-05 23:52:00
7:52 PM,45.0,21.9,40,30.09,10.0,West,11.5,20.7,N/A,,Overcast,280,2012-10-06 00:52:00
8:52 PM,44.1,23.0,43,30.10,10.0,West,9.2,-,N/A,,Overcast,270,2012-10-06 01:52:00
9:52 PM,39.9,24.1,53,30.09,10.0,West,6.9,-,N/A,,Clear,260,2012-10-06 02:52:00
10:52 PM,39.0,25.0,57,30.09,10.0,West,9.2,-,N/A,,Clear,260,2012-10-06 03:52:00
11:52 PM,37.0,25.0,62,30.09,10.0,WSW,4.6,-,N/A,,Clear,250,2012-10-06 04:52:00